Weather Roundup
Issued by NWS

Home | Current Version | Previous Version | Graphics & Text | Print | Product List | Glossary Off
Versions: 1 2 3 4 5 6 7 8 9 10 11 12 13 14 15 16 17 18 19 20 21 22 23 24 25 26 27 28 29 30 31 32 33 34 35 36 37 38 39 40 41 42 43 44 45 46 47 48 49 50

594
NZUS93 KARX 230110
HRRWXR

CURRENT HOURLY OBSERVATIONS ACROSS
MUCH OF THE UPPER MISSISSIPPI VALLEY
NATIONAL WEATHER SERVICE LA CROSSE WI
700 PM CST WED FEB 22 2017


...SOUTHEAST MINNESOTA...


CITY           SKY/WX    TMP DP  RH WIND       PRES   REMARKS
ROCHESTER      CLEAR     47  44  90 W8        29.59R
ROCHESTER/MAYO FAIR      55  47  74 W8        29.59R
WINONA         CLEAR     46  41  81 CALM      29.57R
AUSTIN         PTCLDY    52  45  76 W3        29.60R
ALBERT LEA     CLEAR     52  46  82 NW14      29.63R
DODGE CENTER   PTCLDY    48  43  81 W9        29.60R
PRESTON        CLEAR     49  43  81 W8        29.60R
OWATONNA       PTCLDY    50  45  81 W15       29.63R
FARIBAULT      CLOUDY    50  46  87 W9        29.63R
$$

...ELSEWHERE IN MINNESOTA...


CITY           SKY/WX    TMP DP  RH WIND       PRES   REMARKS
MINNEAPOLIS    PTCLDY    49  42  77 NW3       29.60R
INTNL FALLS    PTCLDY    30  24  78 NW5       29.78R WCI  25
DULUTH         FLURRIES  36  34  92 N9        29.67R WCI  29
RED WING       MOCLDY    52  41  66 NW3       29.57R
REDWOOD FALLS  CLOUDY    40  35  83 NW15G25   29.72R WCI  32
MANKATO          N/A     46  42  86 W16G24    29.67R
WORTHINGTON    CLOUDY    43  40  89 NW17      29.75R
FAIRMONT       CLEAR     44  39  82 NW23G33   29.70R
$$

...SOUTHWEST WISCONSIN...


CITY           SKY/WX    TMP DP  RH WIND       PRES   REMARKS
LA CROSSE      CLEAR     46  38  73 CALM      29.56S
PRAIRIE DU CHI CLEAR     55  42  63 NW5       29.58R
BOSCOBEL       CLEAR     62  43  49 VRB7      29.56R
LONE ROCK      CLEAR     60  44  55 W10       29.55R
PLATTEVILLE    CLEAR     60  44  56 W14G20    29.58R
FORT MC COY    CLEAR     44  38  78 CALM      29.56F
CAMP DOUGLAS   PTCLDY    43  36  75 W6        29.55R
MAUSTON-NEW LI CLEAR     47  41  78 CALM      29.55R
VIROQUA        FAIR      51  41  70 W5        29.56S
WIS DELLS      CLEAR     53  42  66 W3        29.54S
$$

...ELSEWHERE IN WISCONSIN...


CITY           SKY/WX    TMP DP  RH WIND       PRES   REMARKS
MILWAUKEE      PTCLDY    62  49  62 SW12      29.57R
MADISON        PTCLDY    61  52  72 S6        29.54S
GREEN BAY      MOCLDY    49  44  83 NE8       29.55F
EAU CLAIRE     CLEAR     46  40  79 W3        29.55R
BLACK RVR FLS  FAIR      40  34  81 CALM      29.54F
MEDFORD        PTCLDY    43  38  83 CALM      29.55S
WAUSAU         MOCLDY    50  38  63 NW5       29.53F
WIS RAPIDS     CLOUDY    45  36  70 CALM      29.56R
MARSHFIELD     CLOUDY    47  40  76 CALM      29.53F
RICE LAKE      MOCLDY    43  41  93 CALM      29.58S
$$

...NORTHEAST IOWA...


CITY           SKY/WX    TMP DP  RH WIND       PRES   REMARKS
WATERLOO       CLEAR     54  44  69 NW6       29.61R
DUBUQUE        CLEAR     58  44  60 W12       29.59R
DECORAH        CLEAR     52  45  76 W5        29.58R
MASON CITY     CLEAR     50  45  83 W8        29.64R
CHARLES CITY   CLEAR     50  48  93 W8        29.62R
OELWEIN        CLEAR     50  46  87 W8        29.61R
$$

...ELSEWHERE IN IOWA...


CITY           SKY/WX    TMP DP  RH WIND       PRES   REMARKS
DES MOINES     PTCLDY    64  43  46 NW8       29.67R
IOWA CITY      CLEAR     62  40  44 W13       29.63R
FORT DODGE     CLEAR     54  39  58 NW10      29.68R
MARSHALLTOWN   CLEAR     54  45  71 W6        29.63R
CEDAR RAPIDS   CLEAR     52  42  69 W9        29.61R
$$

...NORTHERN ILLINOIS...


CITY           SKY/WX    TMP DP  RH WIND       PRES   REMARKS
CHICAGO-OHARE  CLEAR     64  54  69 S13       29.60S
CHICAGO-MIDWAY CLEAR     64  54  69 S13       29.61F
MOLINE         CLEAR     64  50  60 S14       29.59R
ROCKFORD       CLEAR     60  50  69 S10       29.61R
PEORIA         CLEAR     58  54  86 S15       29.66R
$$

NOTE: "FAIR" INDICATES FEW OR NO CLOUDS BELOW 12,000 FEET WITH NO
SIGNIFICANT WEATHER AND/OR OBSTRUCTIONS TO VISIBILITY. WIND
SPEEDS ARE IN MILES-PER-HOUR.




USA.gov is the U.S. government's official web portal to all federal, state and local government web resources and services.